x

Potomac, Md (44042) Weather Station

10:50am - Thu 17th Apr 2014 All times are EDT. -4 hours from GMT.

  • Wind
    16mph, 20mph gusts
  • Air Temp 46°f
  • Sea Pressure 1037.1mb
  • Potomac, Md
  • Potomac, Md

More Historic Weather Station data

Upgrade to MSW Pro to gain access to the past 30 days of data for over 8000 Wavebouys and Weather Stations around the globe.

Join Pro

Comparision Forecast

View Surf forecast
   
Thu 04/17 10:50am  -   -  16 20 mph 1037.1mb - 46f
10:40am  -   -  16 20 mph 1037.1mb - 45f
10:30am  -   -  16 20 mph 1037mb - 45f
10:20am  -   -  16 20 mph 1037.1mb - 45f
10:10am  -   -  16 20 mph 1037mb - 45f
10:00am 1ft 3s 16 20 mph 1036.9mb 50f 45f
9:50am  -   -  16 20 mph 1036.9mb - 45f
9:40am  -   -  16 20 mph 1036.9mb - 45f
9:30am  -   -  16 20 mph 1036.8mb - 45f
9:20am  -   -  16 20 mph 1036.7mb - 45f
9:10am  -   -  16 20 mph 1036.6mb - 45f
9:00am 1ft 3s 16 20 mph 1036.5mb 50f 45f
8:50am  -   -  16 20 mph 1036.4mb - 45f
8:40am  -   -  16 25 mph 1036.3mb - 45f
8:30am  -   -  18 20 mph 1036.3mb - 45f
8:20am  -   -  18 20 mph 1036.2mb - 45f
8:10am  -   -  16 20 mph 1036.1mb - 45f
8:00am 1ft 3s 18 20 mph 1035.9mb 50f 45f
7:50am  -   -  18 20 mph 1035.7mb - 45f
7:40am  -   -  18 20 mph 1035.6mb - 45f
7:30am  -   -  18 22 mph 1035.4mb - 45f
7:20am  -   -  18 20 mph 1035.3mb - 45f
7:10am  -   -  16 20 mph 1035.2mb - 45f
7:00am 1ft 3s 16 20 mph 1035mb 50f 45f
6:50am  -   -  16 20 mph 1034.8mb - 45f
6:40am  -   -  16 22 mph 1034.7mb - 44f
6:30am  -   -  16 20 mph 1034.6mb - 44f
6:20am  -   -  16 20 mph 1034.4mb - 44f
6:10am  -   -  16 20 mph 1034.4mb - 44f
6:00am 1.3ft 2s 16 18 mph 1034.2mb 50f 44f
5:50am  -   -  16 18 mph 1034mb - 44f
5:40am  -   -  16 20 mph 1033.8mb - 44f
5:30am  -   -  16 18 mph 1033.7mb - 44f
5:20am  -   -  16 18 mph 1033.7mb - 44f
5:10am  -   -  13 18 mph 1033.7mb - 44f
5:00am 1.3ft 2s 13 16 mph 1033.6mb 51f 44f
4:50am  -   -  16 18 mph 1033.5mb - 44f
4:40am  -   -  13 18 mph 1033.5mb - 44f
4:30am  -   -  13 18 mph 1033.4mb - 44f
4:20am  -   -  13 18 mph 1033.4mb - 44f
4:10am  -   -  16 18 mph 1033.4mb - 44f
4:00am 1.3ft 2s 13 18 mph 1033.4mb 50f 44f
3:50am  -   -  13 16 mph 1033.4mb - 44f
3:40am  -   -  16 18 mph 1033.3mb - 44f
3:30am  -   -  16 18 mph 1033.3mb - 44f
3:20am  -   -  13 18 mph 1033.2mb - 44f
3:10am  -   -  13 16 mph 1033.3mb - 45f
3:00am 0.7ft  -  13 18 mph 1033.2mb 51f 45f
2:50am  -   -  13 18 mph 1033mb - 45f
2:40am  -   -  13 16 mph 1033mb - 45f
2:30am  -   -  13 16 mph 1033mb - 45f
2:20am  -   -  13 16 mph 1033mb - 45f
2:10am  -   -  13 16 mph 1033.1mb - 45f
2:00am 0.7ft  -  13 16 mph 1033mb 51f 45f
1:50am  -   -  13 16 mph 1033mb - 45f
1:40am  -   -  13 16 mph 1033.1mb - 45f
1:30am  -   -  13 16 mph 1033.2mb - 45f
1:20am  -   -  11 16 mph 1033.2mb - 45f
1:10am  -   -  11 16 mph 1033.2mb - 45f
1:00am 0.7ft  -  11 13 mph 1033.2mb 51f 45f
12:50am  -   -  13 16 mph 1033.2mb - 45f
12:40am  -   -  13 16 mph 1033.1mb - 45f
12:30am  -   -  13 16 mph 1033.1mb - 45f
12:20am  -   -  13 16 mph 1033mb - 46f
12:10am  -   -  13 16 mph 1033mb - 46f
12:00am 0.7ft  -  13 16 mph 1033mb 51f 46f
Wed 04/16 11:50pm  -   -  11 16 mph 1033mb - 46f
11:40pm  -   -  11 16 mph 1032.9mb - 46f
11:30pm  -   -  11 13 mph 1032.9mb - 46f
11:20pm  -   -  11 13 mph 1032.8mb - 46f
11:10pm  -   -  11 16 mph 1032.8mb - 46f
11:00pm 1ft 2s 11 16 mph 1032.7mb 51f 46f
10:50pm  -   -  13
mph
1032.6mb - 46f
10:40pm  -   -  13 16 mph 1032.5mb - 46f
10:30pm  -   -  11 16 mph 1032.6mb - 46f
10:20pm  -   -  11 16 mph 1032.5mb - 46f
10:10pm  -   -  11 16 mph 1032.4mb - 46f
10:00pm 1ft 2s 11 16 mph 1032.3mb 51f 46f
9:50pm  -   -  11 13 mph 1032.2mb - 46f
9:40pm  -   -  11 16 mph 1032.1mb - 46f
9:30pm  -   -  11 16 mph 1031.9mb - 46f
9:20pm  -   -  11 16 mph 1031.9mb - 46f
9:10pm  -   -  11 16 mph 1031.8mb - 46f
9:00pm 1ft 2s 9 13 mph 1031.7mb 51f 45f
8:50pm  -   -  7 11 mph 1031.6mb - 45f
8:40pm  -   -  9 11 mph 1031.4mb - 45f
8:30pm  -   -  9 11 mph 1031.3mb - 45f
8:20pm  -   -  9 11 mph 1031.1mb - 45f
8:00pm 1ft 2s 9 13 mph 1031mb 51f 45f
7:50pm  -   -  9 11 mph 1031mb - 45f
7:40pm  -   -  9 13 mph 1030.9mb - 45f
7:30pm  -   -  13 18 mph 1030.8mb - 46f
7:10pm  -   -  11 13 mph 1030.6mb - 46f
7:00pm 1ft 2s 13 18 mph 1030.5mb 51f 46f
6:50pm  -   -  13 18 mph 1030.4mb - 46f
6:40pm  -   -  13 18 mph 1030.3mb - 46f
6:30pm  -   -  16 18 mph 1030.2mb - 46f
6:20pm  -   -  16 18 mph 1030mb - 46f
6:10pm  -   -  13 20 mph 1030mb - 46f
6:00pm 1ft 2s 13 18 mph 1030mb 51f 46f
5:50pm  -   -  13 18 mph 1029.8mb - 46f
5:40pm  -   -  16 22 mph 1029.8mb - 45f
5:30pm  -   -  16 22 mph 1029.7mb - 45f
5:20pm  -   -  13 20 mph 1029.7mb - 45f
5:10pm  -   -  16 20 mph 1029.7mb - 45f
4:50pm  -   -  18 22 mph 1029.5mb - 44f
4:40pm  -   -  18 25 mph 1029.5mb - 44f
4:30pm  -   -  18 22 mph 1029.5mb - 44f
4:20pm  -   -  18 22 mph 1029.5mb - 44f
4:10pm  -   -  18 25 mph 1029.5mb - 44f
4:00pm 1.6ft 2s 18 22 mph 1029.5mb 49f 44f
3:50pm  -   -  18 22 mph 1029.4mb - 44f
3:40pm  -   -  18 22 mph 1029.3mb - 44f
3:20pm  -   -  18 22 mph 1029.3mb - 43f
3:10pm  -   -  20 25 mph 1029.4mb - 43f
3:00pm 1.6ft 2s 18 22 mph 1029.5mb 49f 43f
2:50pm  -   -  18 25 mph 1029.6mb - 43f
2:40pm  -   -  18 25 mph 1029.7mb - 42f
2:30pm  -   -  20 25 mph 1029.7mb - 42f
2:20pm  -   -  18 25 mph 1029.9mb - 42f
2:10pm  -   -  20 25 mph 1029.7mb - 42f
2:00pm 1.6ft 2s 20 27 mph 1029.5mb 49f 41f
1:50pm  -   -  20 27 mph 1029.5mb - 41f
1:40pm  -   -  22 27 mph 1029.4mb - 41f
1:30pm  -   -  20 25 mph 1029.6mb - 41f
1:20pm  -   -  20 27 mph 1029.7mb - 41f
1:10pm  -   -  20 27 mph 1029.7mb - 41f
1:00pm 1.6ft 2s 22 27 mph 1029.8mb 49f 40f
12:50pm  -   -  20 25 mph 1030.2mb - 40f
12:40pm  -   -  18 25 mph 1030.4mb - 41f
12:30pm  -   -  18 22 mph 1030.7mb - 40f
12:20pm  -   -  20 25 mph 1030.6mb - 40f
12:10pm  -   -  18 25 mph 1030.4mb - 40f
12:00pm  -   -  18 25 mph 1030.3mb 48f 40f
11:50am  -   -  20 25 mph 1030.3mb - 39f
11:40am  -   -  18 25 mph 1030mb - 39f
11:30am  -   -  20 27 mph 1029.9mb - 39f
11:20am  -   -  20 25 mph 1029.8mb - 39f
11:10am  -   -  18 22 mph 1029.8mb - 39f
11:00am  -   -  16 25 mph 1029.7mb 49f 39f
10:50am  -   -  16 22 mph 1029.4mb - 38f
10:40am  -   -  18 25 mph 1029.4mb - 38f
10:30am  -   -  20 25 mph 1029.3mb - 38f
10:20am  -   -  20 25 mph 1029mb - 38f
10:10am  -   -  20 27 mph 1028.8mb - 38f
10:00am  -   -  20 29 mph 1028.5mb 49f 38f
9:50am  -   -  18 25 mph 1028.4mb - 38f
9:40am  -   -  18 25 mph 1028.1mb - 37f
9:30am  -   -  18 22 mph 1027.8mb - 37f
9:20am  -   -  18 27 mph 1027.8mb - 37f
9:10am  -   -  20 25 mph 1027.5mb - 37f
9:00am 1.6ft 3s 20 25 mph 1027.1mb 49f 37f
8:50am  -   -  22 27 mph 1026.8mb - 37f
8:40am  -   -  20 27 mph 1026.5mb - 37f
8:30am  -   -  22 27 mph 1026.2mb - 37f
8:20am  -   -  22 29 mph 1026.1mb - 36f
8:10am  -   -  22 34 mph 1025.8mb - 36f
8:00am 1.6ft 3s 25 29 mph 1025.7mb 49f 36f
7:50am  -   -  25 31 mph 1025.6mb - 36f
7:40am  -   -  22 31 mph 1025.5mb - 36f
7:30am  -   -  22 29 mph 1025.4mb - 36f
7:20am  -   -  22 29 mph 1025.4mb - 36f
7:10am  -   -  20 27 mph 1025.1mb - 36f
6:50am  -   -  20 27 mph 1024.7mb - 35f
6:40am  -   -  20 25 mph 1024.6mb - 35f
6:30am  -   -  22 29 mph 1024.3mb - 35f
6:20am  -   -  20 29 mph 1023.9mb - 35f
6:10am  -   -  22 29 mph 1023.6mb - 35f
6:00am 1.6ft 3s 22 31 mph 1023.2mb 49f 35f
5:50am  -   -  20 27 mph 1022.8mb - 35f
5:30am  -   -  22 27 mph 1022.3mb - 36f
5:20am  -   -  25 34 mph 1022.2mb - 36f
5:10am  -   -  22 29 mph 1022mb - 36f
5:00am 2.5ft 3s 22 27 mph 1021.7mb 49f 36f
4:50am  -   -  20 29 mph 1021.4mb - 36f
4:40am  -   -  16 22 mph 1021.3mb - 36f
4:30am  -   -  13 18 mph 1021.1mb - 37f
4:20am  -   -  13 18 mph 1020.8mb - 37f
4:10am  -   -  20 25 mph 1020.6mb - 37f
4:00am 2.5ft 3s 18 22 mph 1020.5mb 49f 37f
3:50am  -   -  16 22 mph 1020.3mb - 38f
3:40am  -   -  20 25 mph 1020mb - 38f
3:30am  -   -  20 29 mph 1019.6mb - 38f
3:20am  -   -  20 29 mph 1019.1mb - 38f
3:10am  -   -  22 29 mph 1019.1mb - 39f
3:00am 2.5ft 3s 20 29 mph 1018.7mb 49f 39f
2:50am  -   -  20 27 mph 1018.4mb - 39f
2:40am  -   -  25 38 mph 1018.2mb - 39f
2:30am  -   -  22 29 mph 1017.3mb - 39f
2:20am  -   -  22 34 mph 1016.8mb - 39f
2:10am  -   -  20 25 mph 1016.6mb - 39f
2:00am 2.5ft 3s 22 29 mph 1016.6mb 49f 40f
1:50am  -   -  22 27 mph 1016.4mb - 40f
1:40am  -   -  22 27 mph 1016.1mb - 40f
1:30am  -   -  22 29 mph 1015.9mb - 40f
1:20am  -   -  22 29 mph 1016.3mb - 40f
1:10am  -   -  22 29 mph 1016.5mb - 40f
1:00am 2ft 3s 20 29 mph 1016.5mb 49f 40f
12:50am  -   -  20 27 mph 1016.9mb - 40f
12:40am  -   -  22 29 mph 1015.7mb - 40f
12:30am  -   -  20 27 mph 1015.6mb - 39f
12:20am  -   -  18 25 mph 1015.7mb - 38f
12:10am  -   -  18 22 mph 1015.7mb - 37f
12:00am 2ft 3s 20 27 mph 1015.4mb 49f 37f
Tue 04/15 11:50pm  -   -  20 25 mph 1015mb - 37f
11:40pm  -   -  20 27 mph 1015mb - 36f
11:30pm  -   -  20 27 mph 1015mb - 37f
11:20pm  -   -  18 25 mph 1015.3mb - 37f
11:10pm  -   -  18 25 mph 1015mb - 37f
11:00pm 2ft 3s 22 29 mph 1014.6mb 48f 38f
10:50pm  -   -  22 31 mph 1014.8mb - 39f
10:40pm  -   -  25 31 mph 1014.2mb - 40f
10:30pm  -   -  25 31 mph 1014.1mb - 40f
10:20pm  -   -  25 31 mph 1013.5mb - 41f
10:10pm  -   -  22 27 mph 1012.9mb - 41f
10:00pm 2ft 3s 22 31 mph 1012.5mb 48f 42f
9:50pm  -   -  18 27 mph 1012.9mb - 42f
9:40pm  -   -  22 25 mph 1012.3mb - 42f
9:30pm  -   -  22 29 mph 1012.3mb - 42f
9:20pm  -   -  20 29 mph 1012mb - 42f
9:10pm  -   -  22 31 mph 1011.5mb - 42f
9:00pm  -   -  20 29 mph 1010.8mb 48f 43f
8:50pm  -   -  20 27 mph 1010.5mb - 43f
8:40pm  -   -  20 31 mph 1010.2mb - 43f
8:30pm  -   -  20 29 mph 1010.4mb - 43f
8:20pm  -   -  22 34 mph 1010.5mb - 44f
8:10pm  -   -  22 31 mph 1010.6mb - 44f
8:00pm  -   -  25 34 mph 1010.6mb 50f 44f
7:50pm  -   -  25 31 mph 1009.9mb - 45f
7:40pm  -   -  25 31 mph 1008.9mb - 46f
7:30pm  -   -  22 31 mph 1008.5mb - 46f
7:20pm  -   -  20 25 mph 1007.5mb - 46f
7:10pm  -   -  25 34 mph 1007.3mb - 46f
7:00pm  -   -  22 29 mph 1006.8mb 53f 47f
6:50pm  -   -  25 31 mph 1006.8mb - 47f
6:40pm  -   -  27 34 mph 1006.6mb - 47f
6:30pm  -   -  27 38 mph 1006.3mb - 47f
6:20pm  -   -  27 34 mph 1006.4mb - 48f
6:10pm  -   -  36 56 mph 1005.7mb - 48f
6:00pm 1.6ft 3s 31 58 mph 1005mb 53f 49f
5:50pm  -   -  29 36 mph 1004.8mb - 49f
5:40pm  -   -  27 38 mph 1004.2mb - 51f
5:30pm  -   -  22 29 mph 1003.4mb - 52f
5:20pm  -   -  25 31 mph 1002.8mb - 53f
5:10pm  -   -  13 29 mph 1002.6mb - 58f
5:00pm 1.6ft 3s 7 9 mph 1001.8mb 53f 57f
4:50pm  -   -  9
mph
1001.9mb - 57f
4:40pm  -   -  7 9 mph 1001.9mb - 58f
4:30pm  -   -  9 11 mph 1002mb - 58f
4:20pm  -   -  7 13 mph 1002mb - 61f
4:10pm  -   -  11 13 mph 1001.9mb - 63f
4:00pm 1.6ft 3s 11 20 mph 1001.9mb 53f 61f
3:50pm  -   -  9 13 mph 1002mb - 57f
3:40pm  -   -  7 11 mph 1002.2mb - 56f
3:30pm  -   -  11 13 mph 1002.3mb - 56f
3:20pm  -   -  11 13 mph 1002.1mb - 56f
3:10pm  -   -  9 11 mph 1002.3mb - 56f
3:00pm 1.6ft 3s 9 11 mph 1002.3mb 52f 57f
2:50pm  -   -  11 13 mph 1002.4mb - 59f
2:40pm  -   -  13 16 mph 1002.6mb - 59f
2:30pm  -   -  13 16 mph 1002.7mb - 59f
2:20pm  -   -  13 16 mph 1002.7mb - 58f
2:10pm  -   -  13 16 mph 1002.6mb - 58f
2:00pm 2.5ft 3s 13 16 mph 1002.7mb 52f 57f
1:50pm  -   -  13 16 mph 1002.7mb - 57f
1:40pm  -   -  13
mph
1002.8mb - 57f
1:30pm  -   -  13
mph
1002.8mb - 58f
1:20pm  -   -  13 16 mph 1003.1mb - 58f
1:10pm  -   -  16 18 mph 1003.2mb - 58f
1:00pm 2.5ft 3s 16 18 mph 1003.2mb 53f 59f
12:50pm  -   -  18 20 mph 1003.3mb - 60f
12:40pm  -   -  18 20 mph 1003.1mb - 60f
12:30pm  -   -  16 20 mph 1003.1mb - 60f
12:20pm  -   -  16
mph
1003.1mb - 60f
12:10pm  -   -  16 18 mph 1002.9mb - 60f
12:00pm 2.5ft 3s 16 20 mph 1002.8mb 53f 60f
11:50am  -   -  18 20 mph 1002.8mb - 60f
11:40am  -   -  18 20 mph 1002.9mb - 60f
11:30am  -   -  18 20 mph 1003.1mb - 60f
11:20am  -   -  25
mph
1003.3mb - 60f
11:10am  -   -  20
mph
1003.6mb - 60f
10:50am  -   -  13 16 mph 1003.6mb - 59f
10:40am  -   -  16 18 mph 1003.7mb - 59f
10:30am  -   -  16 18 mph 1004.1mb - 59f
10:20am  -   -  18 20 mph 1003.9mb - 59f
10:10am  -   -  18 20 mph 1003.7mb - 59f
10:00am 2ft 3s 22
mph
1003.8mb 54f 59f
9:50am  -   -  16 18 mph 1004mb - 59f
9:40am  -   -  22 45 mph 1004mb - 59f
9:30am  -   -  16 22 mph 1004.1mb - 59f
9:20am  -   -  16 18 mph 1004.3mb - 59f
9:10am  -   -  16 18 mph 1004.4mb - 59f
9:00am  -   -  16 18 mph 1004.6mb 56f 59f
8:40am  -   -  18 20 mph 1005mb - 59f
8:30am  -   -  18 22 mph 1005.1mb - 59f
8:20am  -   -  18 20 mph 1005.1mb - 59f
8:10am  -   -  18 22 mph 1005.3mb - 59f
8:00am 1.3ft 3s 18 20 mph 1005.2mb 56f 59f
7:50am  -   -  16 18 mph 1005.5mb - 59f
7:40am  -   -  16 18 mph 1005.6mb - 59f
7:30am  -   -  13 16 mph 1005.7mb - 58f
7:20am  -   -  13 16 mph 1005.7mb - 57f
7:10am  -   -  11 13 mph 1005.7mb - 57f
7:00am 1.3ft 3s 11 13 mph 1005.6mb 55f 57f
6:50am  -   -  11 13 mph 1006mb - 57f
6:40am  -   -  11 13 mph 1006.1mb - 57f
6:30am  -   -  13 16 mph 1006.1mb - 58f
6:20am  -   -  13 16 mph 1006.2mb - 57f
6:10am  -   -  11 16 mph 1006.3mb - 58f
6:00am 1.3ft 3s 13 16 mph 1006.4mb 54f 58f
5:50am  -   -  13 16 mph 1006.5mb - 58f
5:40am  -   -  16 18 mph 1006.4mb - 58f
5:30am  -   -  16 18 mph 1006.5mb - 58f
5:20am  -   -  16 18 mph 1006.7mb - 59f
5:10am  -   -  16 18 mph 1006.8mb - 58f
5:00am 1.3ft 3s 13 16 mph 1007mb 53f 57f
4:50am  -   -  13
mph
1006.9mb - 57f
4:40am  -   -  11 13 mph 1007.1mb - 57f
4:30am  -   -  11 13 mph 1007.3mb - 56f
4:20am  -   -  11 13 mph 1007.2mb - 57f
4:10am  -   -  11 13 mph 1007.4mb - 57f
4:00am 1.6ft 2s 11 13 mph 1007.5mb 56f 56f
3:50am  -   -  11 13 mph 1007.6mb - 56f
3:40am  -   -  11 13 mph 1007.7mb - 56f
3:20am  -   -  13 16 mph 1008.1mb - 57f
3:10am  -   -  11 16 mph 1008.2mb - 57f
3:00am 1.6ft 2s 13 16 mph 1008.3mb 56f 58f
2:50am  -   -  13 16 mph 1008.4mb - 57f
2:40am  -   -  13 16 mph 1008.7mb - 57f
2:30am  -   -  11 13 mph 1008.8mb - 57f
2:20am  -   -  11 13 mph 1009mb - 57f
2:10am  -   -  11
mph
1009.1mb - 56f
2:00am 1.6ft 2s 13 16 mph 1009.2mb 53f 57f
1:50am  -   -  13 16 mph 1009.3mb - 57f
1:40am  -   -  13 16 mph 1009.4mb - 58f
1:20am  -   -  11 16 mph 1009.7mb - 58f
1:10am  -   -  11 13 mph 1009.9mb - 58f
1:00am 1.6ft 3s 11 16 mph 1010.3mb 55f 58f
12:50am  -   -  13 18 mph 1010.4mb - 59f
12:40am  -   -  13 16 mph 1010mb - 59f
12:30am  -   -  13 16 mph 1009.7mb - 58f
12:20am  -   -  11 13 mph 1010mb - 57f
12:10am  -   -  11 13 mph 1010.3mb - 58f
12:00am 1.6ft 3s 13 16 mph 1010.5mb 57f 60f
Mon 04/14 11:50pm  -   -  13
mph
1010.7mb - 60f
11:40pm  -   -  11 13 mph 1010.8mb - 60f
11:30pm  -   -  13
mph
1010.9mb - 60f
11:20pm  -   -  13
mph
1010.9mb - 60f
11:10pm  -   -  13
mph
1011.1mb - 60f
11:00pm 1.6ft 3s 13 16 mph 1011.1mb 57f 60f
10:50pm  -   -  16 18 mph 1011.1mb - 61f
10:40pm  -   -  18 20 mph 1011.2mb - 61f
10:30pm  -   -  16 18 mph 1011.4mb - 61f
10:20pm  -   -  18 20 mph 1011.6mb - 61f
10:10pm  -   -  16 18 mph 1011.6mb - 61f
10:00pm 2ft 3s 18 20 mph 1011.7mb 57f 61f
9:50pm  -   -  16 18 mph 1011.6mb - 61f
9:40pm  -   -  16 18 mph 1011.7mb - 61f
9:30pm  -   -  16 18 mph 1011.8mb - 61f
9:20pm  -   -  16 18 mph 1011.7mb - 61f
9:10pm  -   -  13 16 mph 1011.7mb - 60f
9:00pm 2ft 3s 13 16 mph 1011.6mb 58f 60f
8:50pm  -   -  13 16 mph 1011.5mb - 60f
8:40pm  -   -  13 16 mph 1011.5mb - 60f
8:30pm  -   -  13 16 mph 1011.5mb - 60f
8:20pm  -   -  13 16 mph 1011.4mb - 60f
8:10pm  -   -  13
mph
1011.4mb - 60f
8:00pm 2ft 3s 11 13 mph 1011.4mb 58f 60f
7:50pm  -   -  11 13 mph 1011.5mb - 60f
7:40pm  -   -  13
mph
1011.5mb - 60f
7:30pm  -   -  13 16 mph 1011.3mb - 60f
7:20pm  -   -  13 18 mph 1011.4mb - 60f
7:10pm  -   -  13 16 mph 1011.7mb - 60f
7:00pm 2ft 3s 11 13 mph 1011.8mb 59f 60f
6:50pm  -   -  11 13 mph 1012mb - 60f
6:40pm  -   -  13 16 mph 1012mb - 61f
6:30pm  -   -  13 16 mph 1012mb - 62f
6:20pm  -   -  13 16 mph 1012.1mb - 61f
6:10pm  -   -  13 16 mph 1012.1mb - 61f
6:00pm 2ft 3s 13 16 mph 1012.3mb 59f 61f
5:40pm  -   -  13 16 mph 1012.4mb - 62f
5:30pm  -   -  13 16 mph 1012.3mb - 62f
5:20pm  -   -  13 18 mph 1012.4mb - 62f
5:10pm  -   -  11 16 mph 1012.5mb - 62f
5:00pm 2ft 3s 9 13 mph 1012.6mb 57f 62f
4:50pm  -   -  9 11 mph 1012.7mb - 64f
4:40pm  -   -  9 13 mph 1012.7mb - 65f
4:30pm  -   -  11 16 mph 1012.8mb - 67f
4:20pm  -   -  9 11 mph 1012.9mb - 64f
4:10pm  -   -  9 11 mph 1013mb - 63f
4:00pm 2ft 3s 11 22 mph 1013.2mb 57f 66f
3:50pm  -   -  13 22 mph 1013.2mb - 66f
3:40pm  -   -  7 9 mph 1013.4mb - 63f
3:30pm  -   -  9 11 mph 1013.5mb - 64f
3:20pm  -   -  9 13 mph 1013.6mb - 64f
3:10pm  -   -  9 20 mph 1013.8mb - 64f
3:00pm 2.5ft 3s 9 13 mph 1014mb 56f 61f
2:50pm  -   -  13 18 mph 1014mb - 60f
2:40pm  -   -  13 18 mph 1014mb - 60f
2:30pm  -   -  16 18 mph 1014.2mb - 60f
2:20pm  -   -  13 16 mph 1014.3mb - 59f
2:10pm  -   -  13 16 mph 1014.5mb - 59f
2:00pm 2.5ft 3s 11 16 mph 1014.8mb 56f 59f
1:50pm  -   -  13 18 mph 1014.9mb - 59f
1:40pm  -   -  13 18 mph 1015mb - 60f
1:30pm  -   -  13 18 mph 1015.1mb - 59f
1:20pm  -   -  13 16 mph 1015.2mb - 59f
1:10pm  -   -  13 16 mph 1015.3mb - 60f
1:00pm 2.5ft 3s 11 16 mph 1015.4mb 56f 61f
12:50pm  -   -  11 16 mph 1015.7mb - 61f
12:40pm  -   -  11 16 mph 1015.8mb - 61f
12:30pm  -   -  13 18 mph 1016mb - 61f
12:20pm  -   -  11 16 mph 1016.1mb - 62f
12:10pm  -   -  13 16 mph 1016.3mb - 62f
12:00pm 2ft 3s 16 22 mph 1016.2mb 56f 62f
11:50am  -   -  13 18 mph 1016.4mb - 63f
11:40am  -   -  16 20 mph 1016.6mb - 64f
11:30am  -   -  16 22 mph 1016.8mb - 65f
11:20am  -   -  16 20 mph 1016.9mb - 65f
11:10am  -   -  16 22 mph 1016.9mb - 65f
11:00am 2ft 3s 16 20 mph 1016.9mb 56f 64f
10:50am  -   -  18 25 mph 1016.9mb - 65f
10:40am  -   -  16 18 mph 1016.9mb - 64f
10:30am  -   -  13 18 mph 1016.9mb - 63f
10:20am  -   -  13 16 mph 1016.9mb - 63f
10:10am  -   -  16 20 mph 1016.9mb - 63f
10:00am 2ft 3s 16 25 mph 1017.2mb 56f 64f
9:50am  -   -  20 25 mph 1017.3mb - 64f
9:40am  -   -  20 25 mph 1017.1mb - 64f
9:30am  -   -  18 20 mph 1017.2mb - 63f
9:20am  -   -  16 22 mph 1017.1mb - 63f
9:10am  -   -  18 20 mph 1017.3mb - 62f
9:00am  -   -  18 20 mph 1017mb 56f 62f
8:50am  -   -  16 18 mph 1017.3mb - 62f
8:40am  -   -  13 18 mph 1017.4mb - 61f
8:30am  -   -  13 20 mph 1017.4mb - 61f
8:20am  -   -  13 20 mph 1017.4mb - 61f
8:10am  -   -  11 13 mph 1017.4mb - 60f
8:00am  -   -  13 18 mph 1017.5mb 56f 60f
7:50am  -   -  11 13 mph 1017.4mb - 60f
7:40am  -   -  11 16 mph 1017.3mb - 59f
7:30am  -   -  11 13 mph 1017.2mb - 59f
7:20am  -   -  11 13 mph 1017mb - 58f
7:10am  -   -  11 13 mph 1016.9mb - 58f
7:00am  -   -  11 13 mph 1016.8mb 56f 59f
6:50am  -   -  13
mph
1016.8mb - 59f
6:40am  -   -  13 16 mph 1016.6mb - 59f
6:30am  -   -  13 16 mph 1016.7mb - 60f
6:20am  -   -  11 16 mph 1016.7mb - 60f
6:10am  -   -  13 16 mph 1016.7mb - 60f
6:00am 1.3ft 2s 13 16 mph 1016.7mb 56f 60f
5:50am  -   -  13
mph
1016.7mb - 60f
5:40am  -   -  13 16 mph 1016.8mb - 60f
5:30am  -   -  13 16 mph 1016.7mb - 60f
5:20am  -   -  13 18 mph 1016.9mb - 60f
5:10am  -   -  13 18 mph 1016.8mb - 61f
5:00am 1.3ft 2s 13 18 mph 1016.8mb 55f 61f
4:50am  -   -  13 18 mph 1016.8mb - 60f
4:40am  -   -  13 20 mph 1016.8mb - 60f
4:30am  -   -  13 18 mph 1016.8mb - 60f
4:20am  -   -  13 18 mph 1016.7mb - 60f
4:10am  -   -  16 18 mph 1016.6mb - 61f
4:00am 1.3ft 2s 16 18 mph 1016.6mb 55f 61f
3:50am  -   -  16 18 mph 1016.7mb - 61f
3:40am  -   -  18 22 mph 1017mb - 62f
3:30am  -   -  16 20 mph 1017mb - 61f
3:20am  -   -  16 18 mph 1017mb - 62f
3:10am  -   -  16 18 mph 1017mb - 62f
3:00am 1.3ft 2s 16 20 mph 1017mb 55f 62f
2:50am  -   -  16 20 mph 1017.1mb - 62f
2:30am  -   -  16 20 mph 1017.2mb - 62f
2:20am  -   -  16 20 mph 1017.4mb - 62f
2:10am  -   -  16 18 mph 1017.6mb - 62f
2:00am 1.6ft 3s 16 18 mph 1017.6mb 56f 62f
1:50am  -   -  18 20 mph 1017.7mb - 63f
1:40am  -   -  16 20 mph 1017.8mb - 62f
1:30am  -   -  16 18 mph 1017.9mb - 62f
1:20am  -   -  13 18 mph 1018mb - 61f
1:10am  -   -  11 16 mph 1018mb - 60f
1:00am 1.6ft 3s 11 13 mph 1018mb 56f 59f
12:50am  -   -  11 13 mph 1017.9mb - 59f
12:40am  -   -  11 13 mph 1017.8mb - 58f
12:30am  -   -  11 13 mph 1017.7mb - 58f
12:20am  -   -  11 13 mph 1017.7mb - 59f
12:10am  -   -  13
mph
1017.5mb - 59f
12:00am 1.6ft 3s 13 16 mph 1017.5mb 56f 59f
Sun 04/13 11:50pm  -   -  13 16 mph 1017.5mb - 59f
11:40pm  -   -  13 16 mph 1017.5mb - 59f
11:30pm  -   -  13 18 mph 1017.5mb - 59f
11:20pm  -   -  16 18 mph 1017.4mb - 59f
11:10pm  -   -  16 18 mph 1017.4mb - 60f
11:00pm 1.6ft 3s 16 18 mph 1017.4mb 55f 59f
10:50pm  -   -  13 16 mph 1017.4mb - 60f
10:40pm  -   -  13 18 mph 1017.6mb - 60f
10:30pm  -   -  13 16 mph 1017.5mb - 59f
10:20pm  -   -  13 16 mph 1017.5mb - 60f
10:10pm  -   -  13 16 mph 1017.4mb - 60f
10:00pm 1.6ft 3s 16
mph
1017.5mb 56f 60f
9:50pm  -   -  16 18 mph 1017.5mb - 60f
9:40pm  -   -  16 18 mph 1017.5mb - 60f
9:30pm  -   -  16 18 mph 1017.5mb - 60f
9:20pm  -   -  18 20 mph 1017.4mb - 60f
9:10pm  -   -  18 20 mph 1017.4mb - 60f
9:00pm 1.6ft 3s 18 20 mph 1017.5mb 56f 60f
8:50pm  -   -  18 20 mph 1017.7mb - 60f
8:40pm  -   -  18 20 mph 1017.6mb - 60f
8:30pm  -   -  18 20 mph 1017.5mb - 60f
8:20pm  -   -  18 20 mph 1017.4mb - 60f
8:10pm  -   -  18 20 mph 1017.5mb - 61f
8:00pm 1.3ft 2s 18 22 mph 1017.4mb 57f 61f
7:50pm  -   -  18 22 mph 1017.5mb - 62f
7:40pm  -   -  18 20 mph 1017.4mb - 62f
7:30pm  -   -  20 22 mph 1017.4mb - 63f
7:20pm  -   -  20 22 mph 1017.5mb - 63f
7:10pm  -   -  18 22 mph 1017.8mb - 64f
6:50pm  -   -  18 20 mph 1017.7mb - 64f
6:40pm  -   -  18 20 mph 1017.7mb - 64f
6:30pm  -   -  20 22 mph 1017.9mb - 65f
6:20pm  -   -  20 22 mph 1017.9mb - 65f
6:10pm  -   -  20 25 mph 1017.9mb - 65f
6:00pm 1.3ft 2s 18 25 mph 1017.9mb 58f 65f
5:50pm  -   -  20 25 mph 1018mb - 66f
5:40pm  -   -  20 22 mph 1017.9mb - 66f
5:30pm  -   -  18 22 mph 1017.9mb - 65f
5:00pm 1.3ft 2s 16
mph
1018mb 58f 65f
4:50pm  -   -  16 18 mph 1018mb - 66f
4:40pm  -   -  16 18 mph 1018.1mb - 65f
4:20pm  -   -  13 16 mph 1018mb - 64f
4:10pm  -   -  16 18 mph 1018mb - 64f
4:00pm 1.3ft 2s 16 18 mph 1018mb 58f 64f